sat.trackr.live / text

‹ back to catalog

STARLINK-36877

NORAD 67896 · 2026-035T

PAYLOAD ACTIVE UNKNOWN

§ Identity

Operator
Country
US
Launch date
2026-02-21
Launch site
AFWTR
Launch vehicle
Mass (kg)
RCS (m²)

Purposes: comms

External: N2YO · Heavens-Above · Gunter

§ Orbital elements

Epoch: 2026-05-25T01:12:42.432768Z

Period
93.90 min
Inclination
97.2851°
Eccentricity
0.0001656
Mean motion
15.33487246 rev/d
Perigee alt
464.3 km
Apogee alt
466.6 km
Semi-major
6,843.6 km
B*
9.2936e-4
RAAN
78.6269°
Arg perigee
104.2063°
Mean anomaly
255.9364°
Rev number
1,569

§ Raw data

STARLINK-368771 67896U 26035T   26145.05049112  .00030088  00000+0  92936-3 0  99922 67896  97.2851  78.6269 0001656 104.2063 255.9364 15.33487246 15690

JSON: /api/v1/satellites/67896 · /tle

For live sub-satellite position, see the globe view (requires WebGL).

§ Visibility from observer

Set your observer location to see the next 7 days of passes ≥ 10°. The values pass through the URL so the page stays shareable.

No JS? Fill the form by hand. The geolocation button needs JavaScript.